Weather History for Chipley, FL

Change the Weather History Date:

Saturday, January 26, 2013

  Actual Average (KMAI) Record (KMAI)
Temperature  
Mean Temperature 69 °F 51 °F  
Max Temperature 78 °F 62 °F 77 °F (2012)
Min Temperature 60 °F 40 °F 23 °F (2001)
Degree Days  
Heating Degree Days 0    
Month to date heating degree days  
Since 1 July heating degree days  
Cooling Degree Days 4    
Month to date cooling degree days  
Year to date cooling degree days  
Growing Degree Days 19 (Base 50)    
Moisture  
Dew Point 57 °F    
Average Humidity 72    
Maximum Humidity 88    
Minimum Humidity 42    
Precipitation  
Precipitation 0.00 in 0.20 in 2.36 in (2004)
Month to date precipitation 4.11  
Year to date precipitation 4.11  
Sea Level Pressure  
Sea Level Pressure 30.22 in    
Wind  
Wind Speed 4 mph (South)    
Max Wind Speed 8 mph    
Max Gust Speed -    
Visibility 9 miles    
Events      
T = Trace of Precipitation, MM = Missing Value Source: NWS Daily Summary

Daily Weather History Graph

Daily Weather History Graph

Search for Another Location

Airport:

Trip Planner

Search our weather history database for the weather conditions in past years. The results will help you decide how hot, cold, wet, or windy it might be!

Date:

Astronomy

Jan. 26, 2013 Rise Set
Actual Time 6:37 AM CST 5:13 PM CST
Civil Twilight 6:11 AM CST 5:38 PM CST
Nautical Twilight 5:42 AM CST 6:07 PM CST
Astronomical Twilight 5:13 AM CST 6:36 PM CST
Moon 5:04 PM CST (1/26) 5:56 AM CST (1/26)
Length of Visible Light 11h 27m
Length of Day
10h 36m
Full, 100% of the Moon is Illuminated
Jan 26
Full
Jan 26
Full
Feb 3
Last Quarter
Feb 10
New
Feb 17
First Quarter

Hourly Weather History & Observations

Time (CST) Temp. Dew Point Humidity Pressure Visibility Wind Dir Wind Speed Gust Speed Precip Events Conditions
12:15 AM 62.6 °F 59.0 °F 88% 30.22 in 10.0 mi South 3.5 mph - N/A   Mostly Cloudy
12:35 AM 62.6 °F 59.0 °F 88% 30.22 in 10.0 mi SSW 3.5 mph - N/A   Mostly Cloudy
12:55 AM 62.6 °F 59.0 °F 88% 30.22 in 9.0 mi South 5.8 mph - N/A   Mostly Cloudy
1:15 AM 62.6 °F 59.0 °F 88% 30.22 in 10.0 mi South 5.8 mph - N/A   Mostly Cloudy
1:35 AM 62.6 °F 59.0 °F 88% 30.21 in 9.0 mi South 5.8 mph - N/A   Partly Cloudy
1:55 AM 62.6 °F 59.0 °F 88% 30.21 in 8.0 mi South 4.6 mph - N/A   Partly Cloudy
2:15 AM 62.6 °F 59.0 °F 88% 30.21 in 8.0 mi South 4.6 mph - N/A   Clear
2:35 AM 62.6 °F 57.2 °F 82% 30.21 in 8.0 mi South 4.6 mph - N/A   Clear
2:55 AM 62.6 °F 57.2 °F 82% 30.21 in 8.0 mi South 4.6 mph - N/A   Clear
3:15 AM 62.6 °F 57.2 °F 82% 30.21 in 8.0 mi South 4.6 mph - N/A   Clear
3:35 AM 62.6 °F 57.2 °F 82% 30.20 in 10.0 mi South 3.5 mph - N/A   Clear
3:55 AM 62.6 °F 57.2 °F 82% 30.20 in 10.0 mi South 3.5 mph - N/A   Clear
4:15 AM 62.6 °F 57.2 °F 82% 30.20 in 10.0 mi South 3.5 mph - N/A   Clear
4:35 AM 62.6 °F 57.2 °F 82% 30.20 in 10.0 mi South 3.5 mph - N/A   Clear
4:55 AM 62.6 °F 57.2 °F 82% 30.20 in 10.0 mi South 3.5 mph - N/A   Clear
5:15 AM 60.8 °F 57.2 °F 88% 30.21 in 8.0 mi Calm Calm - N/A   Clear
5:35 AM 60.8 °F 57.2 °F 88% 30.21 in 10.0 mi Calm Calm - N/A   Clear
5:55 AM 60.8 °F 57.2 °F 88% 30.21 in 9.0 mi SSW 3.5 mph - N/A   Clear
6:15 AM 60.8 °F 57.2 °F 88% 30.22 in 10.0 mi SSW 3.5 mph - N/A   Clear
6:35 AM 60.8 °F 57.2 °F 88% 30.23 in 10.0 mi South 4.6 mph - N/A   Clear
6:55 AM 60.8 °F 57.2 °F 88% 30.23 in 9.0 mi SSW 3.5 mph - N/A   Clear
7:15 AM 60.8 °F 57.2 °F 88% 30.24 in 8.0 mi South 3.5 mph - N/A   Clear
7:35 AM 60.8 °F 57.2 °F 88% 30.24 in 7.0 mi South 4.6 mph - N/A   Clear
7:55 AM 60.8 °F 57.2 °F 88% 30.24 in 4.0 mi South 3.5 mph - N/A   Clear
8:15 AM 60.8 °F 57.2 °F 88% 30.25 in 5.0 mi Calm Calm - N/A   Clear
8:35 AM 62.6 °F 57.2 °F 82% 30.25 in 5.0 mi Calm Calm - N/A   Clear
8:55 AM 62.6 °F 59.0 °F 88% 30.26 in 8.0 mi Calm Calm - N/A   Clear
9:15 AM 66.2 °F 60.8 °F 83% 30.26 in 8.0 mi SSW 3.5 mph - N/A   Mostly Cloudy
9:35 AM 68.0 °F 60.8 °F 78% 30.26 in 10.0 mi Calm Calm - N/A   Partly Cloudy
9:55 AM 69.8 °F 60.8 °F 73% 30.27 in 10.0 mi South 3.5 mph - N/A   Mostly Cloudy
10:15 AM 69.8 °F 60.8 °F 73% 30.27 in 10.0 mi Calm Calm - N/A   Overcast
10:35 AM 71.6 °F 60.8 °F 69% 30.27 in 10.0 mi SW 4.6 mph - N/A   Mostly Cloudy
10:55 AM 71.6 °F 60.8 °F 69% 30.27 in 10.0 mi Calm Calm - N/A   Mostly Cloudy
11:15 AM 71.6 °F 57.2 °F 60% 30.26 in 10.0 mi West 3.5 mph - N/A   Scattered Clouds
11:35 AM 71.6 °F 57.2 °F 60% 30.26 in 10.0 mi WSW 3.5 mph - N/A   Scattered Clouds
11:55 AM 71.6 °F 57.2 °F 60% 30.24 in 10.0 mi SW 4.6 mph - N/A   Partly Cloudy
12:15 PM 73.4 °F 57.2 °F 57% 30.24 in 10.0 mi South 5.8 mph - N/A   Mostly Cloudy
12:35 PM 73.4 °F 57.2 °F 57% 30.23 in 10.0 mi Calm Calm - N/A   Mostly Cloudy
12:55 PM 75.2 °F 55.4 °F 50% 30.22 in 10.0 mi SW 8.1 mph - N/A   Mostly Cloudy
1:15 PM 75.2 °F 55.4 °F 50% 30.21 in 10.0 mi South 5.8 mph - N/A   Partly Cloudy
1:35 PM 75.2 °F 55.4 °F 50% 30.21 in 10.0 mi South 6.9 mph - N/A   Scattered Clouds
1:55 PM 77.0 °F 53.6 °F 44% 30.20 in 10.0 mi SSW 5.8 mph - N/A   Scattered Clouds
2:15 PM 77.0 °F 55.4 °F 47% 30.20 in 10.0 mi SW 3.5 mph - N/A   Partly Cloudy
2:35 PM 78.8 °F 55.4 °F 44% 30.20 in 10.0 mi SW 3.5 mph - N/A   Scattered Clouds
2:55 PM 78.8 °F 53.6 °F 42% 30.20 in 10.0 mi WSW 3.5 mph - N/A   Clear
3:15 PM 75.2 °F 57.2 °F 53% 30.20 in 10.0 mi Calm Calm - N/A   Scattered Clouds
3:35 PM 73.4 °F 57.2 °F 57% 30.19 in 10.0 mi North 4.6 mph - N/A   Scattered Clouds
3:55 PM 73.4 °F 57.2 °F 57% 30.19 in 10.0 mi NNE 5.8 mph - N/A   Mostly Cloudy
4:15 PM 73.4 °F 57.2 °F 57% 30.19 in 10.0 mi NNE 5.8 mph - N/A   Overcast
4:35 PM 71.6 °F 57.2 °F 60% 30.20 in 10.0 mi NE 5.8 mph - N/A   Mostly Cloudy
4:55 PM 71.6 °F 57.2 °F 60% 30.20 in 10.0 mi NNE 4.6 mph - N/A   Mostly Cloudy
5:15 PM 71.6 °F 57.2 °F 60% 30.20 in 10.0 mi East 4.6 mph - N/A   Scattered Clouds
5:35 PM 69.8 °F 57.2 °F 64% 30.20 in 10.0 mi NE 5.8 mph - N/A   Clear
5:55 PM 69.8 °F 57.2 °F 64% 30.20 in 10.0 mi Calm Calm - N/A   Scattered Clouds
6:15 PM 71.6 °F 57.2 °F 60% 30.21 in 10.0 mi South 4.6 mph - N/A   Scattered Clouds
6:35 PM 69.8 °F 57.2 °F 64% 30.21 in 10.0 mi South 5.8 mph - N/A   Clear
6:55 PM 69.8 °F 57.2 °F 64% 30.21 in 10.0 mi South 4.6 mph - N/A   Clear
7:15 PM 69.8 °F 57.2 °F 64% 30.22 in 10.0 mi South 4.6 mph - N/A   Clear
7:35 PM 68.0 °F 57.2 °F 68% 30.22 in 10.0 mi South 6.9 mph - N/A   Clear
7:55 PM 68.0 °F 57.2 °F 68% 30.22 in 10.0 mi South 6.9 mph - N/A   Clear
8:15 PM 68.0 °F 57.2 °F 68% 30.22 in 10.0 mi South 6.9 mph - N/A   Clear
8:35 PM 66.2 °F 57.2 °F 73% 30.23 in 10.0 mi South 5.8 mph - N/A   Clear
8:55 PM 66.2 °F 57.2 °F 73% 30.23 in 10.0 mi South 5.8 mph - N/A   Clear
9:15 PM 66.2 °F 57.2 °F 73% 30.23 in 10.0 mi South 4.6 mph - N/A   Clear
9:35 PM 64.4 °F 57.2 °F 77% 30.23 in 10.0 mi SSE 5.8 mph - N/A   Clear
9:55 PM 64.4 °F 57.2 °F 77% 30.24 in 10.0 mi South 5.8 mph - N/A   Clear
10:15 PM 64.4 °F 57.2 °F 77% 30.25 in 10.0 mi South 6.9 mph - N/A   Clear
10:35 PM 64.4 °F 57.2 °F 77% 30.25 in 10.0 mi South 6.9 mph - N/A   Clear
10:55 PM 64.4 °F 57.2 °F 77% 30.25 in 10.0 mi South 5.8 mph - N/A   Clear
11:15 PM 64.4 °F 57.2 °F 77% 30.25 in 10.0 mi South 6.9 mph - N/A   Clear
11:35 PM 64.4 °F 57.2 °F 77% 30.25 in 10.0 mi South 6.9 mph - N/A   Clear
11:55 PM 64.4 °F 57.2 °F 77% 30.24 in 10.0 mi South 8.1 mph - N/A   Clear